SCP
-0 0 0 0 0 0 0 0 0 0 0 0 0 0 0 0 1 1 1 1 1 1 1 1 1 1 1 1 1 1 1 1 1 1 1 1 1 1 1 1 1 1 1 1
0 0 0 0 0 0 -0 0 0 0 0 0 0 0 0 0 1 1 1 1 1 1 1 1 1 1 1 1 1 1 1 1 1 1 1 1 1 1 1 1 1 0 0 0
0 0 0 0 0 0 0 0 0 0 0 0 0 0 0 1 1 1 1 1 1 1 1 1 1 1 1 1 1 1 1 1 1 1 1 1 1 1 0 0 0 0 0 0
0 0 0 0 0 0 0 0 0 0 0 0 0 0 0 1 0 0 0 0 0 0 0 0 0 0 0 0 0 0 0 0 0 0 0 0 0 0 0 0 0 0 0 0
0 0 0 0 0 0 0 0 0 0 0 0 0 0 0 1 0 0 0 0 0 0 0 0 0 0 0 0 0 0 0 0 0 0 0 0 0 0 0 0 0 0 0 0
0 0 0 0 0 0 0 0 0 0 0 0 0 0 0 1 0 0 0 0 0 0 0 0 0 0 0 0 0 0 0 0 0 0 0 0 0 0 0 0 0 0 0 0
0 0 0 0 0 0 0 0 0 0 0 0 0 0 0 0 0 0 0 0 0 0 0 0 0 0 0 0 0 0 0 0 0 0 0 0 0 0 0 0 0 0 0 0
0 0 0 0 0 0 0 0 0 0 0 0 0 0 0 0 0 0 0 0 0 0 0 0 0 0 0 0 0 0 0 0 0 0 0 0 0 0 0 0 0 0 0 0
0 0 0 0 0 0 0 0 0 0 0 0 0 0 0 0 0 0 0 0 0 0 0 0 0 0 0 0 0 0 0 0 0 0 0 0 0 0 0 0 0 0 0 0
0 0 0 0 0 0 0 0 0 0 0 0 0 0 0 0 0 0 0 0 0 0 0 0 0 0 0 0 0 0 0 0 0 0 0 0 0 0 0 0 0 0 0 0
0 0 0 0 0 0 0 0 0 0 0 0 0 0 0 0 0 0 0 0 0 0 0 0 0 0 0 0 0 0 0 0 0 0 0 0 0 0 0 0 0 0 0 0
0 0 0 0 0 0 0 0 0 0 0 0 0 0 0 0 0 0 0 0 0 0 0 0 0 0 0 0 0 0 0 0 0 0 0 0 0 0 0 0 0 0 0 0
0 0 0 0 0 0 0 0 0 0 0 0 0 0 0 0 0 0 0 0 0 0 0 0 0 0 0 0 0 0 0 0 0 0 0 0 0 0 0 0 0 0 0 0
0 0 0 0 0 0 0 0 0 0 0 0 0 0 0 0 0 0 0 0 0 0 0 0 0 0 0 0 0 0 0 0 0 0 0 0 0 0 0 0 0 0 0 0
0 0 0 0 0 0 0 0 0 0 0 0 0 0 0 0 0 0 0 0 0 0 0 0 0 0 0 0 0 0 0 0 0 0 0 0 0 0 0 0 0 0 0 0
0 0 0 0 0 0 0 0 0 0 0 0 0 0 0 0 0 0 0 0 0 0 0 0 0 0 0 0 0 0 0 0 0 0 0 0 0 0 0 0 0 0 0 0
0 0 0 0 0 0 0 0 0 0 0 0 0 0 0 0 0 0 0 0 0 0 0 0 0 0 0 0 0 0 0 0 0 0 0 0 0 0 0 0 0 0 0 0
0 0 0 0 0 0 0 0 0 0 0 0 0 0 0 0 0 0 0 0 0 0 0 0 0 0 0 0 0 0 0 0 0 0 0 0 0 0 0 0 0 0 0 0
0 0 0 0 0 0 0 0 0 0 0 0 0 0 0 0 0 0 0 0 0 0 0 0 0 0 0 0 0 0 0 0 0 0 0 0 0 0 0 0 0 0 0 0
0 0 0 0 0 0 0 0 0 0 0 0 0 0 0 0 0 0 0 0 0 0 0 0 0 0 0 0 0 0 0 0 0 0 0 0 0 0 0 0 0 0 0 0
0 0 0 0 0 0 0 0 0 0 0 0 0 0 0 0 0 0 0 0 0 0 0 0 0 0 0 0 0 0 0 0 0 0 0 0 0 0 0 0 0 0 0 0
0 0 0 0 0 0 0 0 0 0 0 0 0 0 0 0 0 0 0 0 0 0 0 0 0 0 0 0 0 0 0 0 0 0 0 0 0 0 0 0 0 0 0 0
0 0 0 0 0 0 0 0 0 0 0 0 0 0 0 0 0 0 0 0 0 0 0 0 0 0 0 0 0 0 0 0 0 0 0 0 0 0 0 0 0 0 0 0
0 0 0 0 0 0 0 0 0 0 0 0 0 0 0 0 0 0 0 0 0 0 0 0 0 0 0 0 0 0 0 0 0 0 0 0 0 0 0 0 0 0 0 0
0 0 0 0 0 0 0 0 0 0 0 0 0 0 0 0 0 0 0 0 0 0 0 0 0 0 0 0 0 0 0 0 0 0 0 0 0 0 0 0 0 0 0 0
0 0 0 0 0 0 0 0 0 0 0 0 0 0 0 0 0 0 0 0 0 0 0 0 0 0 0 0 0 0 0 0 0 0 0 0 0 0 0 0 0 0 0 0
Wind_Speed
5 8 4 2 4 5 5 5 3 2 3 2 6 7 8 8 8 9 9 10 10 10 10 10 9 8 7 6 5 4 4 3 2 1 3 3 3 4 4 4 5 6 7 7
7 5 2 3 3 6 7 6 3 3 4 2 5 7 8 9 10 9 9 9 9 9 9 10 10 9 8 7 6 5 4 3 2 1 2 2 3 3 3 3 3 5 6 6
6 3 2 4 4 6 6 6 4 1 3 6 5 7 9 9 9 9 9 9 9 9 9 8 8 8 7 7 6 5 4 3 3 2 1 1 3 3 2 2 2 3 4 5
3 2 3 5 3 6 5 2 5 4 7 4 6 3 9 8 9 8 8 8 8 8 8 7 7 7 6 5 4 4 3 3 2 1 2 3 3 3 2 2 1 2 4 5
1 3 4 3 5 6 6 4 5 7 9 8 4 5 9 6 6 7 6 6 6 6 6 6 6 5 5 5 4 3 4 4 3 3 3 4 4 3 2 1 2 2 2 3
1 1 4 5 4 3 3 6 7 9 9 7 1 5 7 6 6 5 5 5 5 5 5 5 5 5 5 5 5 5 5 5 5 5 5 5 5 5 4 4 3 3 2 2
1 4 4 5 6 2 5 9 7 6 5 1 3 1 8 7 6 6 5 5 5 5 5 6 6 7 7 7 7 7 7 7 7 7 7 7 7 7 7 6 4 4 3 3
3 2 7 7 7 7 5 8 7 8 7 3 2 4 7 6 5 4 4 4 5 6 7 7 8 8 8 9 9 9 9 10 9 9 8 8 9 8 7 7 7 6 5 5
5 3 5 6 6 6 4 5 6 9 8 6 2 8 8 5 4 4 4 5 6 7 9 9 10 9 10 10 10 11 11 11 11 11 10 10 10 10 10 9 9 9 7 7
5 4 4 3 1 7 6 5 5 5 7 8 2 3 4 5 5 5 6 7 8 9 10 11 11 11 11 11 11 12 12 12 12 12 11 10 11 11 11 11 12 11 10 9
5 4 3 4 7 10 7 6 6 4 6 8 8 4 7 5 6 7 8 9 11 12 13 13 12 12 13 13 13 13 13 14 13 13 13 12 13 12 12 12 12 12 12 11
4 5 3 6 6 6 8 8 8 6 6 6 8 5 7 4 5 7 10 12 13 14 14 14 14 14 14 15 15 15 15 15 14 14 14 14 14 14 14 14 13 13 13 13
3 4 3 8 7 4 6 8 7 5 4 5 8 5 4 3 6 9 12 14 15 15 15 15 15 15 15 16 16 16 16 16 16 15 15 15 15 15 14 14 14 14 14 13
3 4 7 7 6 4 4 6 7 8 7 8 9 12 10 9 11 13 14 15 16 15 15 16 15 15 15 16 16 16 17 16 16 16 16 16 15 15 15 15 14 14 14 14
3 3 4 5 3 2 3 4 6 8 9 10 13 14 11 11 13 15 16 16 16 16 17 17 16 16 16 16 16 16 16 16 16 16 16 16 16 15 14 14 14 13 13 14
2 1 1 3 2 1 0 2 5 8 10 12 12 10 10 12 14 15 16 16 16 17 18 18 18 18 17 17 16 16 16 16 16 16 17 16 15 15 15 14 14 14 13 13
1 2 4 0 2 6 4 0 6 10 12 12 11 12 14 16 16 17 16 14 16 18 18 18 18 17 17 17 16 16 16 16 16 16 16 16 15 15 14 14 14 13 13 12
1 3 3 3 2 4 6 3 6 11 11 7 7 11 14 15 16 15 11 14 17 18 18 17 17 17 17 17 16 16 16 16 16 16 15 15 14 14 13 13 12 12 11 11
0 3 4 5 5 1 5 0 7 12 11 3 8 13 15 15 16 9 12 15 16 17 17 16 16 17 17 17 16 16 16 16 16 15 15 15 14 13 13 12 11 10 10 9
4 2 4 4 6 3 5 5 6 9 4 5 10 14 15 16 14 11 16 17 16 16 15 15 16 16 16 16 16 16 16 16 16 15 15 15 14 13 13 12 11 9 9 9
3 2 3 5 4 1 6 4 7 8 9 10 11 12 13 13 13 15 17 16 16 16 16 16 15 15 15 15 15 15 16 15 15 15 15 14 13 12 11 10 9 9 8 8
4 2 1 3 4 4 5 5 6 8 7 9 10 11 12 13 14 15 15 16 16 16 16 16 14 15 14 14 14 15 15 15 15 14 14 13 12 11 9 8 8 8 7 7
3 4 3 3 4 4 2 4 4 5 7 8 9 11 11 13 14 15 15 15 15 15 15 14 15 15 14 14 14 15 15 15 15 14 13 12 12 9 9 8 7 6 5 5
5 1 3 3 2 1 1 1 2 4 6 7 8 10 11 13 14 14 14 14 14 14 14 14 15 15 15 15 15 14 14 14 14 13 12 11 10 9 8 6 5 4 4 4
2 5 4 5 2 2 2 2 3 3 4 6 7 9 10 12 13 13 13 13 13 13 13 13 13 14 15 15 15 14 13 13 13 13 11 10 9 8 7 5 4 4 3 3
6 6 5 2 1 3 3 1 1 3 4 6 7 9 10 10 12 12 12 12 12 13 13 13 14 14 15 15 15 14 12 12 12 10 10 8 7 6 5 5 3 2 3 3
Wind_Direction
218 238 235 302 291 306 295 286 285 64 97 82 91 90 77 66 66 67 67 65 64 62 59 55 53 53 57 60 63 53 47 47 14 324 283 263 258 260 255 250 258 258 249 238
225 221 349 320 274 256 255 258 251 136 138 180 124 106 93 73 66 62 62 62 63 64 61 54 51 51 55 58 58 56 48 52 40 11 307 300 300 283 279 267 253 261 249 241
264 36 10 272 245 247 249 272 303 296 170 190 181 149 117 98 87 78 70 65 63 60 56 52 49 44 42 42 35 30 27 33 39 18 282 269 261 266 275 286 272 262 262 252
265 359 295 277 282 285 280 331 294 267 250 238 239 253 115 109 90 75 69 66 62 58 53 46 41 35 30 25 22 15 4 2 3 303 299 299 291 300 304 292 293 276 263 263
0 355 321 324 357 319 338 333 281 268 266 266 235 275 110 107 76 67 67 62 55 48 44 37 30 19 11 2 351 349 344 331 321 305 293 288 294 298 296 279 246 259 255 256
9 49 359 355 343 326 308 263 246 244 252 251 12 296 90 58 38 49 57 56 46 34 27 21 10 358 347 340 333 329 325 319 313 305 302 295 297 294 289 276 262 248 234 237
171 111 56 349 310 272 288 291 272 253 249 20 78 6 71 53 42 33 31 30 22 10 1 358 352 348 340 331 327 317 310 304 302 296 293 293 291 285 277 278 269 263 255 233
316 43 38 16 353 326 332 314 319 312 315 338 126 81 85 66 64 50 40 20 6 359 354 347 345 341 337 333 328 319 313 306 301 295 293 292 286 280 280 277 282 273 269 266
336 16 69 37 23 342 331 350 338 291 292 291 97 115 123 96 72 50 27 4 355 348 342 338 335 334 332 329 327 325 320 312 305 299 294 286 282 281 283 282 268 267 261 257
333 315 58 42 353 55 20 348 304 316 325 313 328 116 85 46 23 13 360 351 343 336 334 334 331 330 327 323 322 321 317 314 308 301 293 288 286 281 278 276 276 273 269 262
332 305 72 72 33 23 24 22 348 332 343 323 325 55 63 34 6 347 343 342 338 335 333 332 331 332 327 323 322 320 317 313 308 303 299 294 287 283 277 270 267 265 262 258
350 317 67 89 84 46 45 25 6 353 358 330 312 62 85 31 348 336 332 334 335 332 330 331 331 329 326 325 323 320 318 313 309 305 300 294 289 284 277 271 268 264 261 258
1 304 214 161 156 101 53 44 29 3 317 335 325 16 82 335 331 334 332 332 331 330 330 330 330 328 326 324 321 319 317 314 312 309 303 299 295 291 285 279 275 269 263 257
313 17 357 21 37 47 71 54 29 5 352 333 338 333 337 347 337 333 332 330 329 329 331 330 328 325 324 321 319 317 315 314 311 308 303 298 295 292 288 283 277 270 264 258
306 56 56 66 79 75 76 48 20 14 355 331 330 325 345 350 333 330 329 329 329 331 330 328 326 325 322 321 319 317 315 313 310 306 302 298 295 292 287 282 278 272 265 261
27 59 154 137 126 111 177 10 350 351 343 330 322 332 1 335 327 329 329 329 330 330 329 328 326 325 323 322 319 318 314 312 310 306 303 300 297 294 289 283 278 273 267 262
142 222 282 358 164 253 217 69 338 339 336 328 325 339 337 328 331 329 326 330 332 329 328 327 326 325 323 321 321 318 317 315 312 308 306 304 300 296 291 288 285 279 273 267
219 278 294 327 244 285 74 54 335 325 323 327 322 329 331 329 327 316 330 340 331 328 326 327 325 323 321 320 320 320 317 315 313 311 310 308 305 300 296 292 287 284 276 268
351 284 308 307 298 300 131 35 339 325 316 2 331 328 329 332 316 323 8 343 329 327 326 324 322 322 320 320 322 321 317 315 314 313 313 311 308 304 299 293 286 283 278 269
131 261 290 308 309 334 69 45 343 296 291 41 335 330 332 330 323 341 347 334 330 329 326 324 323 320 320 324 324 319 317 317 318 318 316 311 308 304 298 293 288 282 277 273
214 237 308 313 298 35 63 18 304 308 1 350 333 331 329 331 322 322 328 329 329 328 326 325 324 323 324 324 323 318 318 319 319 317 314 310 308 305 299 295 290 285 279 273
286 279 282 293 304 43 53 327 333 342 336 328 329 329 327 321 320 324 328 329 329 329 329 329 326 324 326 325 323 320 319 319 317 314 313 312 311 309 308 304 296 289 283 276
265 348 345 333 0 52 3 329 352 332 320 328 328 329 326 322 326 328 329 330 330 330 330 328 326 325 326 327 326 322 320 320 318 316 316 315 314 310 308 305 301 295 283 277
155 172 254 259 275 336 301 293 304 313 319 325 326 326 326 325 326 329 330 329 330 331 329 329 327 326 326 329 326 323 321 322 320 319 320 320 319 318 319 314 310 305 299 294
156 188 234 250 278 273 211 267 294 304 309 317 324 326 327 326 327 330 327 329 330 329 329 328 327 326 327 327 325 326 328 327 324 322 323 323 326 327 323 325 334 329 341 350
201 210 243 304 70 304 8 66 278 288 305 319 322 324 328 329 328 328 327 329 329 329 329 329 329 328 328 327 325 329 332 330 326 325 329 330 332 334 332 335 4 42 347 17